Year,Month,Day,Hour,Minute,Value (Times are PST for temperature in C)
2010,07,11,02,07,16.20
2010,07,11,02,08,16.20
2010,07,11,02,09,16.20
2010,07,11,02,10,16.20
2010,07,11,02,11,16.20
2010,07,11,02,12,16.10
2010,07,11,02,13,16.10
2010,07,11,02,14,16.10
2010,07,11,02,15,16.10
2010,07,11,02,16,16.10
2010,07,11,02,17,16.10
2010,07,11,02,18,16.10
2010,07,11,02,19,16.10
2010,07,11,02,20,16.10
2010,07,11,02,21,16.10
2010,07,11,02,22,16.10
2010,07,11,02,23,16.10
2010,07,11,02,24,16.10
2010,07,11,02,25,16.00
2010,07,11,02,26,15.90
2010,07,11,02,27,15.90
2010,07,11,02,28,15.90
2010,07,11,02,29,15.90
2010,07,11,02,30,16.00
2010,07,11,02,31,16.10
2010,07,11,02,32,16.00
2010,07,11,02,33,15.90
2010,07,11,02,34,15.90
2010,07,11,02,35,15.90
2010,07,11,02,36,15.90
2010,07,11,02,37,15.90
2010,07,11,02,38,15.90
2010,07,11,02,39,15.90
2010,07,11,02,40,15.90
2010,07,11,02,41,15.90
2010,07,11,02,42,15.90
2010,07,11,02,43,15.90
2010,07,11,02,44,15.90
2010,07,11,02,45,15.90
2010,07,11,02,46,15.90
2010,07,11,02,47,15.90
2010,07,11,02,48,15.90
2010,07,11,02,49,15.90
2010,07,11,02,50,15.90
2010,07,11,02,51,15.80
2010,07,11,02,52,15.80
2010,07,11,02,53,15.80
2010,07,11,02,54,15.80
2010,07,11,02,55,15.80
2010,07,11,02,56,15.80
2010,07,11,02,57,15.80
2010,07,11,02,58,15.80
2010,07,11,02,59,15.80
2010,07,11,03,00,15.80
2010,07,11,03,01,15.80
2010,07,11,03,02,15.80
2010,07,11,03,03,15.80
2010,07,11,03,04,15.80
2010,07,11,03,05,15.80
2010,07,11,03,06,15.80
2010,07,11,03,07,15.80
2010,07,11,03,08,15.80
2010,07,11,03,09,15.80
2010,07,11,03,10,15.80
2010,07,11,03,11,15.80
2010,07,11,03,12,15.80
2010,07,11,03,13,15.70
2010,07,11,03,14,15.70
2010,07,11,03,15,15.70
2010,07,11,03,16,15.70
2010,07,11,03,17,15.60
2010,07,11,03,18,15.60
2010,07,11,03,19,15.60
2010,07,11,03,20,15.60
2010,07,11,03,21,15.60
2010,07,11,03,22,15.60
2010,07,11,03,23,15.60
2010,07,11,03,24,15.60
2010,07,11,03,25,15.60
2010,07,11,03,26,15.60
2010,07,11,03,27,15.60
2010,07,11,03,28,15.60
2010,07,11,03,29,15.60
2010,07,11,03,30,15.60
2010,07,11,03,31,15.60
2010,07,11,03,32,15.60
2010,07,11,03,33,15.50
2010,07,11,03,34,15.50
2010,07,11,03,35,15.50
2010,07,11,03,36,15.50
2010,07,11,03,37,15.50
2010,07,11,03,38,15.50
2010,07,11,03,39,15.50
2010,07,11,03,40,15.50
2010,07,11,03,41,15.50
2010,07,11,03,42,15.50
2010,07,11,03,43,15.50
2010,07,11,03,44,15.50
2010,07,11,03,45,15.50
2010,07,11,03,46,15.50
2010,07,11,03,47,15.50
2010,07,11,03,48,15.50
2010,07,11,03,49,15.50
2010,07,11,03,50,15.50
2010,07,11,03,51,15.60
2010,07,11,03,52,15.60
2010,07,11,03,53,15.60
2010,07,11,03,54,15.60
2010,07,11,03,55,15.60
2010,07,11,03,56,15.50
2010,07,11,03,57,15.50
2010,07,11,03,58,15.50
2010,07,11,03,59,15.50
2010,07,11,04,00,15.50
2010,07,11,04,01,15.40
2010,07,11,04,02,15.40
2010,07,11,04,03,15.40
2010,07,11,04,04,15.40
2010,07,11,04,05,15.40
2010,07,11,04,06,15.30
2010,07,11,04,07,15.30
2010,07,11,04,08,15.30
2010,07,11,04,09,15.30
2010,07,11,04,10,15.30
2010,07,11,04,11,15.30
2010,07,11,04,12,15.30
2010,07,11,04,13,15.30
2010,07,11,04,14,15.30
2010,07,11,04,15,15.30
2010,07,11,04,16,15.30
2010,07,11,04,17,15.30
2010,07,11,04,18,15.30
2010,07,11,04,19,15.30
2010,07,11,04,20,15.30
2010,07,11,04,21,15.30
2010,07,11,04,22,15.30
2010,07,11,04,23,15.30
2010,07,11,04,24,15.30
2010,07,11,04,25,15.30
2010,07,11,04,26,15.30
2010,07,11,04,27,15.30
2010,07,11,04,28,15.30
2010,07,11,04,29,15.30
2010,07,11,04,30,15.30
2010,07,11,04,31,15.30
2010,07,11,04,32,15.30
2010,07,11,04,33,15.30
2010,07,11,04,34,15.30
2010,07,11,04,35,15.30
2010,07,11,04,36,15.30
2010,07,11,04,37,15.30
2010,07,11,04,38,15.30
2010,07,11,04,39,15.30
2010,07,11,04,40,15.30
2010,07,11,04,41,15.30
2010,07,11,04,42,15.30
2010,07,11,04,43,15.30
2010,07,11,04,44,15.30
2010,07,11,04,45,15.30
2010,07,11,04,46,15.30
2010,07,11,04,47,15.30
2010,07,11,04,48,15.30
2010,07,11,04,49,15.20
2010,07,11,04,50,15.20
2010,07,11,04,51,15.20
2010,07,11,04,52,15.20
2010,07,11,04,53,15.20
2010,07,11,04,54,15.10
2010,07,11,04,55,15.10
2010,07,11,04,56,15.10
2010,07,11,04,57,15.10
2010,07,11,04,58,15.10
2010,07,11,04,59,15.10
2010,07,11,05,00,15.10
2010,07,11,05,01,15.10
2010,07,11,05,02,15.10
2010,07,11,05,03,15.10
2010,07,11,05,04,15.10
2010,07,11,05,05,15.10
2010,07,11,05,06,15.10
2010,07,11,05,07,15.10
2010,07,11,05,08,15.10
2010,07,11,05,09,15.10
2010,07,11,05,10,15.10
2010,07,11,05,11,15.20
2010,07,11,05,12,15.20
2010,07,11,05,13,15.10
2010,07,11,05,14,15.10
2010,07,11,05,15,15.10
2010,07,11,05,16,15.10
2010,07,11,05,17,15.10
2010,07,11,05,18,15.10
2010,07,11,05,19,15.10
2010,07,11,05,20,15.10
2010,07,11,05,21,15.10
2010,07,11,05,22,15.10
2010,07,11,05,23,15.10
2010,07,11,05,24,15.10
2010,07,11,05,25,15.10
2010,07,11,05,26,15.10
2010,07,11,05,27,15.10
2010,07,11,05,28,15.10
2010,07,11,05,29,15.10
2010,07,11,05,30,15.10
2010,07,11,05,31,15.10
2010,07,11,05,32,15.10
2010,07,11,05,33,15.10
2010,07,11,05,34,15.00
2010,07,11,05,35,15.00
2010,07,11,05,36,15.00
2010,07,11,05,37,14.90
2010,07,11,05,38,14.90
2010,07,11,05,39,14.90
2010,07,11,05,40,14.90
2010,07,11,05,41,14.90
2010,07,11,05,42,14.90
2010,07,11,05,43,14.80
2010,07,11,05,44,14.80
2010,07,11,05,45,14.80
2010,07,11,05,46,14.80
2010,07,11,05,47,14.80
2010,07,11,05,48,14.80
2010,07,11,05,49,14.80
2010,07,11,05,50,14.80
2010,07,11,05,51,14.80
2010,07,11,05,52,14.80
2010,07,11,05,53,14.80
2010,07,11,05,54,14.80
2010,07,11,05,55,14.80
2010,07,11,05,56,14.80
2010,07,11,05,57,14.80
2010,07,11,05,58,14.80
2010,07,11,05,59,14.80
2010,07,11,06,00,14.80
2010,07,11,06,01,14.80
2010,07,11,06,02,14.80
2010,07,11,06,03,14.80
2010,07,11,06,04,14.90
2010,07,11,06,05,14.90
2010,07,11,06,06,14.90
2010,07,11,06,07,14.90
2010,07,11,06,08,14.90
2010,07,11,06,09,14.90
2010,07,11,06,10,14.90
2010,07,11,06,11,14.90
2010,07,11,06,12,14.90
2010,07,11,06,13,15.00
2010,07,11,06,14,15.00
2010,07,11,06,15,15.00
2010,07,11,06,16,15.00
2010,07,11,06,17,15.00
2010,07,11,06,18,15.00
2010,07,11,06,19,15.10
2010,07,11,06,20,15.10
2010,07,11,06,21,15.10
2010,07,11,06,22,15.20
2010,07,11,06,23,15.20
2010,07,11,06,24,15.30
2010,07,11,06,25,15.30
2010,07,11,06,26,15.30
2010,07,11,06,27,15.40
2010,07,11,06,28,15.50
2010,07,11,06,29,15.50
2010,07,11,06,30,15.60
2010,07,11,06,31,15.60
2010,07,11,06,32,15.60
2010,07,11,06,33,15.70
2010,07,11,06,34,15.80
2010,07,11,06,35,15.80
2010,07,11,06,36,15.80
2010,07,11,06,37,15.90
2010,07,11,06,38,15.90
2010,07,11,06,39,16.00
2010,07,11,06,40,16.10
2010,07,11,06,41,16.10
2010,07,11,06,42,16.20
2010,07,11,06,43,16.20
2010,07,11,06,44,16.30
2010,07,11,06,45,16.30
2010,07,11,06,46,16.30
2010,07,11,06,47,16.30
2010,07,11,06,48,16.40
2010,07,11,06,49,16.40
2010,07,11,06,50,16.40
2010,07,11,06,51,16.40
2010,07,11,06,52,16.50
2010,07,11,06,53,16.60
2010,07,11,06,54,16.60
2010,07,11,06,55,16.60
2010,07,11,06,56,16.60
2010,07,11,06,57,16.70
2010,07,11,06,58,16.70
2010,07,11,06,59,16.70
2010,07,11,07,00,16.70
2010,07,11,07,01,16.70
2010,07,11,07,02,16.70
2010,07,11,07,03,16.70
2010,07,11,07,04,16.80
2010,07,11,07,05,16.80
2010,07,11,07,06,16.90
2010,07,11,07,07,16.90
2010,07,11,07,08,16.90
2010,07,11,07,09,17.00
2010,07,11,07,10,17.00
2010,07,11,07,11,17.10
2010,07,11,07,12,17.10
2010,07,11,07,13,17.10
2010,07,11,07,14,17.10
2010,07,11,07,15,17.10
2010,07,11,07,16,17.10
2010,07,11,07,17,17.20
2010,07,11,07,18,17.20
2010,07,11,07,19,17.30
2010,07,11,07,20,17.30
2010,07,11,07,21,17.30
2010,07,11,07,22,17.30
2010,07,11,07,23,17.30
2010,07,11,07,24,17.30
2010,07,11,07,25,17.30
2010,07,11,07,26,17.40
2010,07,11,07,27,17.40
2010,07,11,07,28,17.50
2010,07,11,07,29,17.50
2010,07,11,07,30,17.50
2010,07,11,07,31,17.60
2010,07,11,07,32,17.60
2010,07,11,07,33,17.60
2010,07,11,07,34,17.70
2010,07,11,07,35,17.70
2010,07,11,07,36,17.70
2010,07,11,07,37,17.70
2010,07,11,07,38,17.80
2010,07,11,07,39,17.80
2010,07,11,07,40,17.80
2010,07,11,07,41,17.90
2010,07,11,07,42,17.90
2010,07,11,07,43,17.90
2010,07,11,07,44,17.90
2010,07,11,07,45,18.00
2010,07,11,07,46,18.10
2010,07,11,07,47,18.10
2010,07,11,07,48,18.10
2010,07,11,07,49,18.20
2010,07,11,07,50,18.20
2010,07,11,07,51,18.20
2010,07,11,07,52,18.20
2010,07,11,07,53,18.20
2010,07,11,07,54,18.20
2010,07,11,07,55,18.30
2010,07,11,07,56,18.30
2010,07,11,07,57,18.40
2010,07,11,07,58,18.50
2010,07,11,07,59,18.50
2010,07,11,08,00,18.60
2010,07,11,08,01,18.60
2010,07,11,08,02,18.60
2010,07,11,08,03,18.60
2010,07,11,08,04,18.70
2010,07,11,08,05,18.70
2010,07,11,08,06,18.70
2010,07,11,08,07,18.70
2010,07,11,08,08,18.70
2010,07,11,08,09,18.70
2010,07,11,08,10,18.70
2010,07,11,08,11,18.70
2010,07,11,08,12,18.70
2010,07,11,08,13,18.70
2010,07,11,08,14,18.80
2010,07,11,08,15,18.80
2010,07,11,08,16,18.90
2010,07,11,08,17,18.90
2010,07,11,08,18,19.00
2010,07,11,08,19,19.10
2010,07,11,08,20,19.10
2010,07,11,08,21,19.10
2010,07,11,08,22,19.10
2010,07,11,08,23,19.10
2010,07,11,08,24,19.10
2010,07,11,08,25,19.20
2010,07,11,08,26,19.30
2010,07,11,08,27,19.20
2010,07,11,08,28,19.20
2010,07,11,08,29,19.20
2010,07,11,08,30,19.20
2010,07,11,08,31,19.30
2010,07,11,08,32,19.30
2010,07,11,08,33,19.30
2010,07,11,08,34,19.30
2010,07,11,08,35,19.40
2010,07,11,08,36,19.40
2010,07,11,08,37,19.50
2010,07,11,08,38,19.60
2010,07,11,08,39,19.70
2010,07,11,08,40,19.90
2010,07,11,08,41,19.90
2010,07,11,08,42,19.90
2010,07,11,08,43,19.90
2010,07,11,08,44,19.90
2010,07,11,08,45,20.00
2010,07,11,08,46,20.20
2010,07,11,08,47,20.20
2010,07,11,08,48,20.20
2010,07,11,08,49,20.20
2010,07,11,08,50,20.30
2010,07,11,08,51,20.30
2010,07,11,08,52,20.40
2010,07,11,08,53,20.50
2010,07,11,08,54,20.60
2010,07,11,08,55,20.80
2010,07,11,08,56,20.80
2010,07,11,08,57,20.90
2010,07,11,08,58,21.00
2010,07,11,08,59,21.00
2010,07,11,09,00,21.10
2010,07,11,09,01,21.10
2010,07,11,09,02,21.10
2010,07,11,09,03,21.10
2010,07,11,09,04,21.20
2010,07,11,09,05,21.20
2010,07,11,09,06,21.20
2010,07,11,09,07,21.20
2010,07,11,09,08,21.30
2010,07,11,09,09,21.30
2010,07,11,09,10,21.30
2010,07,11,09,11,21.30
2010,07,11,09,12,21.30
2010,07,11,09,13,21.30
2010,07,11,09,14,21.30
2010,07,11,09,15,21.30
2010,07,11,09,16,21.30
2010,07,11,09,17,21.30
2010,07,11,09,18,21.30
2010,07,11,09,19,21.30
2010,07,11,09,20,21.40
2010,07,11,09,21,21.40
2010,07,11,09,22,21.60
2010,07,11,09,23,21.60
2010,07,11,09,24,21.60
2010,07,11,09,25,21.60
2010,07,11,09,26,21.60
2010,07,11,09,27,21.60
2010,07,11,09,28,21.60
2010,07,11,09,29,21.60
2010,07,11,09,30,21.60
2010,07,11,09,31,21.70
2010,07,11,09,32,21.70
2010,07,11,09,33,21.70
2010,07,11,09,34,21.80
2010,07,11,09,35,21.80
2010,07,11,09,36,21.80
2010,07,11,09,37,21.80
2010,07,11,09,38,21.80
2010,07,11,09,39,21.80
2010,07,11,09,40,21.80
2010,07,11,09,41,21.70
2010,07,11,09,42,21.60
2010,07,11,09,43,21.60
2010,07,11,09,44,21.60
2010,07,11,09,45,21.40
2010,07,11,09,46,21.30
2010,07,11,09,47,21.30
2010,07,11,09,48,21.20
2010,07,11,09,49,21.00
2010,07,11,09,50,20.80
2010,07,11,09,51,20.70
2010,07,11,09,52,20.70
2010,07,11,09,53,20.60
2010,07,11,09,54,20.60
2010,07,11,09,55,20.50
2010,07,11,09,56,20.30
2010,07,11,09,57,20.20
2010,07,11,09,58,20.20
2010,07,11,09,59,20.20
2010,07,11,10,00,20.30
2010,07,11,10,01,20.30
2010,07,11,10,02,20.30
2010,07,11,10,03,20.30
2010,07,11,10,04,20.20
2010,07,11,10,05,20.30
2010,07,11,10,06,20.20
2010,07,11,10,07,20.20
2010,07,11,10,08,20.20
2010,07,11,10,09,20.20
2010,07,11,10,10,20.20
2010,07,11,10,11,20.30
2010,07,11,10,12,20.40
2010,07,11,10,13,20.50
2010,07,11,10,14,20.60
2010,07,11,10,15,20.70
2010,07,11,10,16,20.80
2010,07,11,10,17,20.90
2010,07,11,10,18,21.00
2010,07,11,10,19,21.10
2010,07,11,10,20,21.20
2010,07,11,10,21,21.30
2010,07,11,10,22,21.30
2010,07,11,10,23,21.30
2010,07,11,10,24,21.30
2010,07,11,10,25,21.30
2010,07,11,10,26,21.30
2010,07,11,10,27,21.40
2010,07,11,10,28,21.40
2010,07,11,10,29,21.40
2010,07,11,10,30,21.40
2010,07,11,10,31,21.40
2010,07,11,10,32,21.50
2010,07,11,10,33,21.60
2010,07,11,10,34,21.60
2010,07,11,10,35,21.60
2010,07,11,10,36,21.40
2010,07,11,10,37,21.30
2010,07,11,10,38,21.30
2010,07,11,10,39,21.30
2010,07,11,10,40,21.10
2010,07,11,10,41,21.00
2010,07,11,10,42,20.90
2010,07,11,10,43,21.00
2010,07,11,10,44,21.10
2010,07,11,10,45,21.10
2010,07,11,10,46,21.00
2010,07,11,10,47,21.00
2010,07,11,10,48,21.00
2010,07,11,10,49,21.00
2010,07,11,10,50,20.90
2010,07,11,10,51,20.90
2010,07,11,10,52,20.80
2010,07,11,10,53,20.80
2010,07,11,10,54,20.80
2010,07,11,10,55,20.90
2010,07,11,10,56,21.00
2010,07,11,10,57,21.20
2010,07,11,10,58,21.30
2010,07,11,10,59,21.30
2010,07,11,11,00,21.30
2010,07,11,11,01,21.30
2010,07,11,11,02,21.30
2010,07,11,11,03,21.30
2010,07,11,11,04,21.30
2010,07,11,11,05,21.30
2010,07,11,11,06,21.40
2010,07,11,11,07,21.50
2010,07,11,11,08,21.60
2010,07,11,11,09,21.60
2010,07,11,11,10,21.60
2010,07,11,11,11,21.60
2010,07,11,11,12,21.60
2010,07,11,11,13,21.70
2010,07,11,11,14,21.70
2010,07,11,11,15,21.80
2010,07,11,11,16,21.90
2010,07,11,11,17,21.90
2010,07,11,11,18,22.00
2010,07,11,11,19,22.00
2010,07,11,11,20,22.00
2010,07,11,11,21,21.90
2010,07,11,11,22,21.60
2010,07,11,11,23,21.30
2010,07,11,11,24,21.10
2010,07,11,11,25,21.00
2010,07,11,11,26,20.80
2010,07,11,11,27,20.70
2010,07,11,11,28,20.60
2010,07,11,11,29,20.40
2010,07,11,11,30,20.20
2010,07,11,11,31,20.00
2010,07,11,11,32,19.90
2010,07,11,11,33,19.80
2010,07,11,11,34,19.80
2010,07,11,11,35,19.90
2010,07,11,11,36,19.80
2010,07,11,11,37,19.70
2010,07,11,11,38,19.70
2010,07,11,11,39,19.80
2010,07,11,11,40,19.90
2010,07,11,11,41,20.00
2010,07,11,11,42,20.10
2010,07,11,11,43,20.10
2010,07,11,11,44,20.20
2010,07,11,11,45,20.20
2010,07,11,11,46,20.20
2010,07,11,11,47,20.20
2010,07,11,11,48,20.20
2010,07,11,11,49,20.20
2010,07,11,11,50,20.10
2010,07,11,11,51,20.10
2010,07,11,11,52,20.10
2010,07,11,11,53,20.10
2010,07,11,11,54,20.20
2010,07,11,11,55,20.20
2010,07,11,11,56,20.30
2010,07,11,11,57,20.30
2010,07,11,11,58,20.20
2010,07,11,11,59,20.20
2010,07,11,12,00,20.30
2010,07,11,12,01,20.40
2010,07,11,12,02,20.40
2010,07,11,12,03,20.40
2010,07,11,12,04,20.50
2010,07,11,12,05,20.60
2010,07,11,12,06,20.60
2010,07,11,12,07,20.60
2010,07,11,12,08,20.50
2010,07,11,12,09,20.40
2010,07,11,12,10,20.40
2010,07,11,12,11,20.20
2010,07,11,12,12,20.30
2010,07,11,12,13,20.50
2010,07,11,12,14,20.60
2010,07,11,12,15,20.70
2010,07,11,12,16,20.70
2010,07,11,12,17,20.80
2010,07,11,12,18,20.80
2010,07,11,12,19,20.80
2010,07,11,12,20,20.80
2010,07,11,12,21,20.90
2010,07,11,12,22,20.90
2010,07,11,12,23,20.90
2010,07,11,12,24,20.80
2010,07,11,12,25,20.70
2010,07,11,12,26,20.50
2010,07,11,12,27,20.60
2010,07,11,12,28,20.60
2010,07,11,12,29,20.70
2010,07,11,12,30,20.70
2010,07,11,12,31,20.80
2010,07,11,12,32,20.80
2010,07,11,12,33,20.80
2010,07,11,12,34,21.00
2010,07,11,12,35,21.00
2010,07,11,12,36,21.00
2010,07,11,12,37,21.00
2010,07,11,12,38,20.90
2010,07,11,12,39,20.90
2010,07,11,12,40,20.80
2010,07,11,12,41,20.80
2010,07,11,12,42,20.80
2010,07,11,12,43,20.90
2010,07,11,12,44,20.80
2010,07,11,12,45,20.80
2010,07,11,12,46,20.80
2010,07,11,12,47,20.90
2010,07,11,12,48,21.00
2010,07,11,12,49,21.20
2010,07,11,12,50,21.20
2010,07,11,12,51,21.20
2010,07,11,12,52,21.30
2010,07,11,12,53,21.20
2010,07,11,12,54,21.20
2010,07,11,12,55,21.30
2010,07,11,12,56,21.30
2010,07,11,12,57,21.30
2010,07,11,12,58,21.30
2010,07,11,12,59,21.30
2010,07,11,13,00,21.30
2010,07,11,13,01,21.30
2010,07,11,13,02,21.30
2010,07,11,13,03,21.30
2010,07,11,13,04,21.30
2010,07,11,13,05,21.30
2010,07,11,13,06,21.30
2010,07,11,13,07,21.40
2010,07,11,13,08,21.40
2010,07,11,13,09,21.40
2010,07,11,13,10,21.40
2010,07,11,13,11,21.40
2010,07,11,13,12,21.40
2010,07,11,13,13,21.50
2010,07,11,13,14,21.50
2010,07,11,13,15,21.50
2010,07,11,13,16,21.60
2010,07,11,13,17,21.60
2010,07,11,13,18,21.70
2010,07,11,13,19,21.80
2010,07,11,13,20,21.90
2010,07,11,13,21,21.90
2010,07,11,13,22,22.00
2010,07,11,13,23,22.00
2010,07,11,13,24,22.00
2010,07,11,13,25,22.00
2010,07,11,13,26,22.00
2010,07,11,13,27,22.00
2010,07,11,13,28,22.00
2010,07,11,13,29,22.00
2010,07,11,13,30,22.10
2010,07,11,13,31,22.10
2010,07,11,13,32,22.30
2010,07,11,13,33,22.40
2010,07,11,13,34,22.50
2010,07,11,13,35,22.50
2010,07,11,13,36,22.50
2010,07,11,13,37,22.50
2010,07,11,13,38,22.50
2010,07,11,13,39,22.50
2010,07,11,13,40,22.50
2010,07,11,13,41,22.50
2010,07,11,13,42,22.50
2010,07,11,13,43,22.50
2010,07,11,13,44,22.60
2010,07,11,13,45,22.60
2010,07,11,13,46,22.60
2010,07,11,13,47,22.60
2010,07,11,13,48,22.40
2010,07,11,13,49,22.30
2010,07,11,13,50,22.20
2010,07,11,13,51,22.10
2010,07,11,13,52,22.10
2010,07,11,13,53,22.10
2010,07,11,13,54,22.00
2010,07,11,13,55,22.00
2010,07,11,13,56,22.10
2010,07,11,13,57,22.20
2010,07,11,13,58,22.20
2010,07,11,13,59,22.30
2010,07,11,14,00,22.30
2010,07,11,14,01,22.30
2010,07,11,14,02,22.40
2010,07,11,14,03,22.40
2010,07,11,14,04,22.50
2010,07,11,14,05,22.40
2010,07,11,14,06,22.30
2010,07,11,14,07,22.20
2010,07,11,14,08,22.00
2010,07,11,14,09,21.90
2010,07,11,14,10,22.00
2010,07,11,14,11,22.00
2010,07,11,14,12,22.00
2010,07,11,14,13,22.00
2010,07,11,14,14,21.90
2010,07,11,14,15,21.80
2010,07,11,14,16,21.60
2010,07,11,14,17,21.60
2010,07,11,14,18,21.60
2010,07,11,14,19,21.60
2010,07,11,14,20,21.70
2010,07,11,14,21,21.80
2010,07,11,14,22,22.00
2010,07,11,14,23,22.00
2010,07,11,14,24,21.90
2010,07,11,14,25,21.80
2010,07,11,14,26,21.70
2010,07,11,14,27,21.70
2010,07,11,14,28,21.80
2010,07,11,14,29,21.90
2010,07,11,14,30,22.00
2010,07,11,14,31,22.10
2010,07,11,14,32,22.20
2010,07,11,14,33,22.30
2010,07,11,14,34,22.40
2010,07,11,14,35,22.40
2010,07,11,14,36,22.50
2010,07,11,14,37,22.50
2010,07,11,14,38,22.30
2010,07,11,14,39,22.20
2010,07,11,14,40,22.10
2010,07,11,14,41,22.00
2010,07,11,14,42,22.10
2010,07,11,14,43,22.20
2010,07,11,14,44,22.20
2010,07,11,14,45,22.30
2010,07,11,14,46,22.40
2010,07,11,14,47,22.50
2010,07,11,14,48,22.50
2010,07,11,14,49,22.30
2010,07,11,14,50,22.30
2010,07,11,14,51,22.30
2010,07,11,14,52,22.30
2010,07,11,14,53,22.20
2010,07,11,14,54,22.20
2010,07,11,14,55,22.30
2010,07,11,14,56,22.40
2010,07,11,14,57,22.30
2010,07,11,14,58,22.10
2010,07,11,14,59,22.10
2010,07,11,15,00,22.00
2010,07,11,15,01,21.90
2010,07,11,15,02,21.90
2010,07,11,15,03,21.90
2010,07,11,15,04,21.90
2010,07,11,15,05,22.00
2010,07,11,15,06,22.10
2010,07,11,15,07,22.10
2010,07,11,15,08,22.10
2010,07,11,15,09,22.10
2010,07,11,15,10,22.00
2010,07,11,15,11,22.00
2010,07,11,15,12,22.10
2010,07,11,15,13,22.20
2010,07,11,15,14,22.30
2010,07,11,15,15,22.30
2010,07,11,15,16,22.30
2010,07,11,15,17,22.40
2010,07,11,15,18,22.40
2010,07,11,15,19,22.50
2010,07,11,15,20,22.60
2010,07,11,15,21,22.70
2010,07,11,15,22,22.70
2010,07,11,15,23,22.60
2010,07,11,15,24,22.70
2010,07,11,15,25,22.70
2010,07,11,15,26,22.80
2010,07,11,15,27,22.70
2010,07,11,15,28,22.80
2010,07,11,15,29,22.80
2010,07,11,15,30,22.80
2010,07,11,15,31,22.70
2010,07,11,15,32,22.70
2010,07,11,15,33,22.60
2010,07,11,15,34,22.60
2010,07,11,15,35,22.60
2010,07,11,15,36,22.50
2010,07,11,15,37,22.50
2010,07,11,15,38,22.40
2010,07,11,15,39,22.40
2010,07,11,15,40,22.50
2010,07,11,15,41,22.60
2010,07,11,15,42,22.80
2010,07,11,15,43,22.80
2010,07,11,15,44,22.70
2010,07,11,15,45,22.60
2010,07,11,15,46,22.60
2010,07,11,15,47,22.40
2010,07,11,15,48,22.40
2010,07,11,15,49,22.30
2010,07,11,15,50,22.30
2010,07,11,15,51,22.20
2010,07,11,15,52,22.30
2010,07,11,15,53,22.50
2010,07,11,15,54,22.60
2010,07,11,15,55,22.60
2010,07,11,15,56,22.60
2010,07,11,15,57,22.60
2010,07,11,15,58,22.60
2010,07,11,15,59,22.60
2010,07,11,16,00,22.60
2010,07,11,16,01,22.70
2010,07,11,16,02,22.80
2010,07,11,16,03,22.70
2010,07,11,16,04,22.60
2010,07,11,16,05,22.60
2010,07,11,16,06,22.60
2010,07,11,16,07,22.60
2010,07,11,16,08,22.60
2010,07,11,16,09,22.60
2010,07,11,16,10,22.60
2010,07,11,16,11,22.70
2010,07,11,16,12,22.80
2010,07,11,16,13,22.90
2010,07,11,16,14,23.10
2010,07,11,16,15,23.20
2010,07,11,16,16,23.20
2010,07,11,16,17,23.20
2010,07,11,16,18,23.20
2010,07,11,16,19,23.30
2010,07,11,16,20,23.30
2010,07,11,16,21,23.40
2010,07,11,16,22,23.50
2010,07,11,16,23,23.60
2010,07,11,16,24,23.60
2010,07,11,16,25,23.50
2010,07,11,16,26,23.30
2010,07,11,16,27,23.40
2010,07,11,16,28,23.50
2010,07,11,16,29,23.70
2010,07,11,16,30,23.80
2010,07,11,16,31,23.90
2010,07,11,16,32,24.10
2010,07,11,16,33,24.10
2010,07,11,16,34,24.20
2010,07,11,16,35,24.20
2010,07,11,16,36,24.20
2010,07,11,16,37,24.10
2010,07,11,16,38,24.10
2010,07,11,16,39,24.00
2010,07,11,16,40,23.90
2010,07,11,16,41,23.90
2010,07,11,16,42,23.90
2010,07,11,16,43,23.90
2010,07,11,16,44,23.80
2010,07,11,16,45,23.70
2010,07,11,16,46,23.60
2010,07,11,16,47,23.50
2010,07,11,16,48,23.40
2010,07,11,16,49,23.30
2010,07,11,16,50,23.30
2010,07,11,16,51,23.20
2010,07,11,16,52,23.10
2010,07,11,16,53,23.00
2010,07,11,16,54,22.90
2010,07,11,16,55,22.80
2010,07,11,16,56,22.80
2010,07,11,16,57,22.70
2010,07,11,16,58,22.70
2010,07,11,16,59,22.70
2010,07,11,17,00,22.80
2010,07,11,17,01,22.80
2010,07,11,17,02,22.80
2010,07,11,17,03,22.80
2010,07,11,17,04,22.80
2010,07,11,17,05,22.80
2010,07,11,17,06,22.70
2010,07,11,17,07,22.70
2010,07,11,17,08,22.60
2010,07,11,17,09,22.60
2010,07,11,17,10,22.60
2010,07,11,17,11,22.60
2010,07,11,17,12,22.60
2010,07,11,17,13,22.70
2010,07,11,17,14,22.60
2010,07,11,17,15,22.60
2010,07,11,17,16,22.70
2010,07,11,17,17,22.80
2010,07,11,17,18,22.80
2010,07,11,17,19,22.80
2010,07,11,17,20,22.80
2010,07,11,17,21,22.90
2010,07,11,17,22,22.80
2010,07,11,17,23,22.70
2010,07,11,17,24,22.60
2010,07,11,17,25,22.60
2010,07,11,17,26,22.60
2010,07,11,17,27,22.70
2010,07,11,17,28,22.70
2010,07,11,17,29,22.70
2010,07,11,17,30,22.60
2010,07,11,17,31,22.50
2010,07,11,17,32,22.40
2010,07,11,17,33,22.50
2010,07,11,17,34,22.40
2010,07,11,17,35,22.20
2010,07,11,17,36,22.00
2010,07,11,17,37,22.10
2010,07,11,17,38,22.00
2010,07,11,17,39,21.90
2010,07,11,17,40,21.80
2010,07,11,17,41,21.80
2010,07,11,17,42,21.70
2010,07,11,17,43,21.60
2010,07,11,17,44,21.60
2010,07,11,17,45,21.60
2010,07,11,17,46,21.60
2010,07,11,17,47,21.60
2010,07,11,17,48,21.60
2010,07,11,17,49,21.60
2010,07,11,17,50,21.60
2010,07,11,17,51,21.60
2010,07,11,17,52,21.60
2010,07,11,17,53,21.60
2010,07,11,17,54,21.60
2010,07,11,17,55,21.50
2010,07,11,17,56,21.30
2010,07,11,17,57,21.20
2010,07,11,17,58,21.20
2010,07,11,17,59,21.20
2010,07,11,18,00,21.20
2010,07,11,18,01,21.20
2010,07,11,18,02,21.30
2010,07,11,18,03,21.20
2010,07,11,18,04,20.90
2010,07,11,18,05,20.80
2010,07,11,18,06,20.80
2010,07,11,18,07,20.60
2010,07,11,18,08,20.60
2010,07,11,18,09,20.50
2010,07,11,18,10,20.40
2010,07,11,18,11,20.30
2010,07,11,18,12,20.20
2010,07,11,18,13,20.20
2010,07,11,18,14,20.30
2010,07,11,18,15,20.20
2010,07,11,18,16,20.10
2010,07,11,18,17,19.90
2010,07,11,18,18,19.90
2010,07,11,18,19,19.90
2010,07,11,18,20,19.80
2010,07,11,18,21,19.80
2010,07,11,18,22,19.70
2010,07,11,18,23,19.60
2010,07,11,18,24,19.60
2010,07,11,18,25,19.50
2010,07,11,18,26,19.50
2010,07,11,18,27,19.40
2010,07,11,18,28,19.10
2010,07,11,18,29,19.10
2010,07,11,18,30,19.10
2010,07,11,18,31,19.10
2010,07,11,18,32,19.10
2010,07,11,18,33,18.90
2010,07,11,18,34,19.00
2010,07,11,18,35,19.10
2010,07,11,18,36,19.10
2010,07,11,18,37,19.10
2010,07,11,18,38,19.00
2010,07,11,18,39,18.90
2010,07,11,18,40,18.90
2010,07,11,18,41,18.80
2010,07,11,18,42,18.70
2010,07,11,18,43,18.60
2010,07,11,18,44,18.60
2010,07,11,18,45,18.70
2010,07,11,18,46,18.80
2010,07,11,18,47,18.80
2010,07,11,18,48,18.70
2010,07,11,18,49,18.60
2010,07,11,18,50,18.50
2010,07,11,18,51,18.40
2010,07,11,18,52,18.30
2010,07,11,18,53,18.20
2010,07,11,18,54,18.10
2010,07,11,18,55,18.10
2010,07,11,18,56,17.90
2010,07,11,18,57,17.90
2010,07,11,18,58,17.90
2010,07,11,18,59,17.90
2010,07,11,19,00,17.90
2010,07,11,19,01,17.90
2010,07,11,19,02,17.90
2010,07,11,19,03,17.80
2010,07,11,19,04,17.70
2010,07,11,19,05,17.70
2010,07,11,19,06,17.70
2010,07,11,19,07,17.60
2010,07,11,19,08,17.50
2010,07,11,19,09,17.50
2010,07,11,19,10,17.40
2010,07,11,19,11,17.30
2010,07,11,19,12,17.20
2010,07,11,19,13,17.20
2010,07,11,19,14,17.20
2010,07,11,19,15,17.20
2010,07,11,19,16,17.20
2010,07,11,19,17,17.10
2010,07,11,19,18,17.00
2010,07,11,19,19,16.90
2010,07,11,19,20,16.90
2010,07,11,19,21,16.90
2010,07,11,19,22,16.80
2010,07,11,19,23,16.80
2010,07,11,19,24,16.80
2010,07,11,19,25,16.80
2010,07,11,19,26,16.70